Weather History for Missoula, MT

Change the Weather History Date:

Tuesday, July 30, 2013

  Actual Average Record
Temperature  
Mean Temperature 73 °F 70 °F  
Max Temperature 88 °F 89 °F 100 °F (2000)
Min Temperature 57 °F 52 °F 38 °F (1913)
Degree Days  
Heating Degree Days 0 1  
Month to date heating degree days 0 41  
Since 1 June heating degree days 141 201  
Since 1 July heating degree days 0 41  
Cooling Degree Days 8 6  
Month to date cooling degree days 247 146  
Year to date cooling degree days 294 189  
Since 1 June cooling degree days 290 183  
Growing Degree Days 22 (Base 50)    
Moisture  
Dew Point 40 °F    
Average Humidity 35    
Maximum Humidity 55    
Minimum Humidity 15    
Precipitation  
Precipitation 0.00 in 0.03 in 0.69 in (1946)
Month to date precipitation 0.09 0.96  
Year to date precipitation 5.90 8.81  
Snow  
Snow 0.00 in - - ()
Month to date snowfall 0.0  
Year to date snowfall 27.4  
Since 1 July snowfall 0.0  
Snow Depth 0.00 in    
Sea Level Pressure  
Sea Level Pressure 30.04 in    
Wind  
Wind Speed 4 mph (NNE)    
Max Wind Speed 16 mph    
Max Gust Speed 22 mph    
Visibility 10 miles    
Events      
T = Trace of Precipitation, MM = Missing Value Source: NWS Daily Summary

Daily Weather History Graph

Daily Weather History Graph

Search for Another Location

Airport:

Trip Planner

Search our weather history database for the weather conditions in past years. The results will help you decide how hot, cold, wet, or windy it might be!

Date:

Astronomy

Jul. 30, 2013 Rise Set
Actual Time 6:13 AM MDT 9:10 PM MDT
Civil Twilight 5:38 AM MDT 9:46 PM MDT
Nautical Twilight 4:52 AM MDT 10:31 PM MDT
Astronomical Twilight 3:57 AM MDT 11:26 PM MDT
Moon 12:37 AM MDT (7/30) 3:33 PM MDT (7/30)
Length of Visible Light 16h 08m
Length of Day
14h 56m
Last Quarter, 40% of the Moon is Illuminated
Jul 30
Last Quarter
Aug 6
New
Aug 14
First Quarter
Aug 20
Full
Aug 28
Last Quarter

Hourly Weather History & Observations

Time (MDT) Temp. Dew Point Humidity Pressure Visibility Wind Dir Wind Speed Gust Speed Precip Events Conditions
12:53 AM 63.0 °F 33.1 °F 33% 29.94 in 10.0 mi North 4.6 mph - N/A   Clear
1:53 AM 64.0 °F 39.9 °F 41% 29.95 in 10.0 mi Calm Calm - N/A   Clear
2:53 AM 63.0 °F 33.1 °F 33% 29.97 in 10.0 mi Calm Calm - N/A   Clear
3:53 AM 57.9 °F 36.0 °F 44% 29.98 in 10.0 mi NW 3.5 mph - N/A   Clear
4:53 AM 57.0 °F 39.0 °F 51% 30.01 in 10.0 mi Calm Calm - N/A   Clear
5:53 AM 59.0 °F 39.0 °F 48% 30.03 in 10.0 mi Calm Calm - N/A   Clear
6:53 AM 57.9 °F 41.0 °F 53% 30.05 in 10.0 mi ESE 4.6 mph - N/A   Clear
7:53 AM 59.0 °F 39.0 °F 48% 30.06 in 10.0 mi Calm Calm - N/A   Clear
8:53 AM 68.0 °F 45.0 °F 43% 30.05 in 10.0 mi East 9.2 mph - N/A   Clear
9:53 AM 69.1 °F 44.1 °F 40% 30.07 in 10.0 mi NNW 5.8 mph - N/A   Clear
10:53 AM 71.1 °F 45.0 °F 39% 30.07 in 10.0 mi Calm Calm - N/A   Clear
11:53 AM 73.9 °F 46.0 °F 37% 30.07 in 10.0 mi South 3.5 mph - N/A   Clear
12:53 PM 75.9 °F 44.1 °F 32% 30.06 in 10.0 mi SSE 5.8 mph - N/A   Clear
1:53 PM 79.0 °F 43.0 °F 28% 30.05 in 10.0 mi SSE 8.1 mph - N/A   Clear
2:53 PM 82.9 °F 39.0 °F 21% 30.03 in 10.0 mi Variable 3.5 mph - N/A   Clear
3:53 PM 86.0 °F 34.0 °F 16% 30.01 in 10.0 mi Variable 5.8 mph - N/A   Partly Cloudy
4:53 PM 86.0 °F 39.9 °F 20% 30.01 in 10.0 mi North 10.4 mph 18.4 mph N/A   Partly Cloudy
5:53 PM 84.0 °F 39.9 °F 21% 30.02 in 10.0 mi North 8.1 mph - N/A   Clear
6:53 PM 84.0 °F 39.9 °F 21% 30.03 in 10.0 mi NNE 12.7 mph 18.4 mph N/A   Clear
7:53 PM 82.9 °F 37.9 °F 20% 30.03 in 10.0 mi WNW 5.8 mph - N/A   Clear
8:53 PM 78.1 °F 39.9 °F 25% 30.04 in 10.0 mi NE 6.9 mph - N/A   Clear
9:53 PM 72.0 °F 41.0 °F 33% 30.08 in 10.0 mi North 3.5 mph - N/A   Clear
10:53 PM 64.9 °F 39.9 °F 40% 30.10 in 10.0 mi Calm Calm - N/A   Clear
11:53 PM 62.1 °F 39.9 °F 44% 30.12 in 10.0 mi Calm Calm - N/A   Clear